Location: Carella
(45.8167°N, 9.2667°E)
Time: 07:36:17
(UTC+00:00)

MOS 1 Rocket - Pass Details

Date: 30 March 2020
Orbit: 614 x 830 km, 97.4° (Epoch: 03 June)

Event Time Altitude Azimuth Distance (km) Brightness Sun altitude
Rises 19:16:22 0° 17° (NNE) 3,262 6.8 -15.5°
Reaches altitude 10° 19:18:45 10° 23° (NNE) 2,358 6.0 -15.8°
Maximum altitude 19:23:49 48° 98° (E) 1,052 3.8 -16.6°
Drops below altitude 10° 19:29:02 10° 172° (S) 2,422 5.8 -17.5°
Enters shadow 19:29:42 - 174° (S) 2,676 6.0 -17.6°
